Klamath Falls, OR

9:28 PM PDT on May 20, 2018 (GMT -0700)
Klamath Falls International

Weather History for KLMT - March, 2013

Change the Weather History Date:

Tuesday, March 5, 2013

  Actual Average Record
Temperature  
Mean Temperature 41 °F 38 °F  
Max Temperature 45 °F 49 °F 65 °F (1986)
Min Temperature 37 °F 26 °F 10 °F (1976)
Degree Days  
Heating Degree Days 24 28  
Month to date heating degree days 124 140  
Since 1 July heating degree days 4815 4981  
Cooling Degree Days 0 0  
Month to date cooling degree days 0 0  
Year to date cooling degree days 0 0  
Moisture  
Dew Point 29 °F    
Average Humidity 65    
Maximum Humidity 85    
Minimum Humidity 45    
Precipitation  
Precipitation 0.02 in 0.04 in 0.71 in (2016)
Month to date precipitation 0.11 0.25  
Year to date precipitation 0.89 4.02  
Sea Level Pressure  
Sea Level Pressure 29.76 in    
Wind  
Wind Speed 18 mph (SSE)    
Max Wind Speed 36 mph    
Max Gust Speed 45 mph    
Visibility 9 miles    
Events Rain    
T = Trace of Precipitation, MM = Missing Value Source: NWS Daily Summary

Daily Weather History Graph

Daily Weather History Graph

Search for Another Location

Airport or City:

Astronomy

Mar. 05, 2013 Rise Set
Actual Time 6:35 AM PST 6:02 PM PST
Civil Twilight 6:07 AM PST 6:30 PM PST
Nautical Twilight 5:34 AM PST 7:02 PM PST
Astronomical Twilight 5:02 AM PST 7:35 PM PST
Moon 1:57 AM PST (3/5) 11:42 AM PST (3/5)
Length of Visible Light 12h 23m
Length of Day
11h 27m
Last Quarter, 39% of the Moon is Illuminated
Mar 5
Last Quarter
Mar 11
New
Mar 19
First Quarter
Mar 27
Full
Apr 2
Last Quarter

Hourly Weather History & Observations

Time (PST) Temp. Windchill Dew Point Humidity Pressure Visibility Wind Dir Wind Speed Gust Speed Precip Events Conditions
12:53 AM 39.9 °F 32.9 °F 35.1 °F 83% 29.89 in 10.0 mi SSE 11.5 mph - N/A   Overcast
1:53 AM 41.0 °F 34.3 °F 36.0 °F 82% 29.86 in 10.0 mi SSE 11.5 mph - 0.00 in   Mostly Cloudy
2:53 AM 42.1 °F 34.2 °F 36.0 °F 79% 29.83 in 10.0 mi SSE 16.1 mph - N/A   Overcast
3:53 AM 39.9 °F 32.5 °F 35.1 °F 83% 29.84 in 7.0 mi SSE 12.7 mph - 0.01 in Rain Light Rain
5:53 AM 39.9 °F 31.8 °F 34.0 °F 79% 29.82 in 10.0 mi SE 15.0 mph - 0.00 in   Mostly Cloudy
6:00 AM 39.2 °F 31.2 °F 33.8 °F 81% 29.84 in 10.0 mi SE 13.8 mph - N/A   Overcast
6:53 AM 37.4 °F 31.4 °F 33.8 °F 87% 29.81 in 10.0 mi SSE 8.1 mph 18.4 mph N/A   Mostly Cloudy
7:53 AM 39.9 °F 34.5 °F 34.0 °F 79% 29.82 in 10.0 mi SSE 8.1 mph - N/A   Overcast
8:53 AM 43.0 °F 34.0 °F 33.1 °F 68% 29.81 in 10.0 mi South 21.9 mph 31.1 mph N/A   Overcast
9:53 AM 44.6 °F 34.7 °F 30.2 °F 57% 29.79 in 10.0 mi South 29.9 mph 40.3 mph N/A   Overcast
10:53 AM 43.0 °F 32.5 °F 26.1 °F 51% 29.78 in 10.0 mi South 29.9 mph 42.6 mph N/A   Overcast
11:53 AM 43.0 °F 32.2 °F 24.1 °F 47% 29.79 in 10.0 mi South 32.2 mph 38.0 mph N/A   Overcast
12:53 PM 44.1 °F 35.4 °F 24.1 °F 45% 29.77 in 10.0 mi South 21.9 mph 33.4 mph N/A   Overcast
1:53 PM 42.1 °F 32.3 °F 24.1 °F 49% 29.76 in 10.0 mi South 24.2 mph 34.5 mph N/A   Overcast
2:53 PM 43.0 °F 33.1 °F 24.1 °F 47% 29.73 in 10.0 mi South 26.5 mph 31.1 mph N/A   Overcast
3:53 PM 43.0 °F 34.2 °F 24.1 °F 47% 29.73 in 10.0 mi South 20.7 mph 31.1 mph N/A   Mostly Cloudy
4:53 PM 42.1 °F 32.3 °F 24.1 °F 49% 29.72 in 10.0 mi South 24.2 mph 32.2 mph N/A   Mostly Cloudy
5:53 PM 39.9 °F 31.1 °F 25.0 °F 55% 29.72 in 10.0 mi South 17.3 mph 27.6 mph N/A   Overcast
6:53 PM 37.9 °F 34.4 °F 27.0 °F 65% 29.70 in 7.0 mi ESE 4.6 mph - N/A   Overcast
7:53 PM 37.9 °F 31.5 °F 26.1 °F 62% 29.68 in 7.0 mi SSE 9.2 mph - N/A   Overcast
8:53 PM 39.0 °F 31.0 °F 27.0 °F 62% 29.66 in 7.0 mi SSE 13.8 mph 20.7 mph N/A   Overcast
9:53 PM 39.0 °F 30.3 °F 28.0 °F 65% 29.63 in 7.0 mi SSE 16.1 mph - N/A   Overcast
10:53 PM 37.9 °F 28.9 °F 28.9 °F 70% 29.61 in 10.0 mi SSE 16.1 mph - N/A   Overcast
11:53 PM 37.0 °F 26.7 °F 30.9 °F 79% 29.59 in 10.0 mi SSE 19.6 mph 25.3 mph 0.00 in Rain Light Rain